EW5030 Weather Reports


time (UTC)temp
C
wind
direction
speed
KPH
gust
KPH
rain 1hr
cm
rain 24hr
cm
rain mn
cm
humidity
%
barometer
mb
20190821194706 17 103 0.0 0.0 0.00 0.00 0.00 64 1025.0
20190821194205 17 103 0.0 1.6 0.00 0.00 0.00 62 1024.9
20190821193705 17 103 0.0 1.6 0.00 0.00 0.00 62 1024.9
20190821193206 18 103 0.0 1.6 0.00 0.00 0.00 61 1024.8
20190821192705 18 103 0.0 0.0 0.00 0.00 0.00 61 1024.7
20190821192206 18 103 0.0 3.2 0.00 0.00 0.00 60 1024.7
20190821191705 18 103 0.0 4.8 0.00 0.00 0.00 59 1024.7
20190821191206 19 103 0.0 4.8 0.00 0.00 0.00 57 1024.6
20190821190705 19 103 0.0 4.8 0.00 0.00 0.00 56 1024.6
20190821190206 19 45 0.0 3.2 0.00 0.00 0.00 56 1024.6
20190821185705 19 5 0.0 3.2 0.00 0.00 0.00 56 1024.5
20190821185206 19 67 0.0 4.8 0.00 0.00 0.00 55 1024.5
20190821184705 20 67 1.6 4.8 0.00 0.00 0.00 55 1024.4
20190821184206 20 55 0.0 4.8 0.00 0.00 0.00 54 1024.4
20190821183707 20 68 0.0 1.6 0.00 0.00 0.00 54 1024.5
20190821183228 20 41 0.0 4.8 0.00 0.00 0.00 54 1024.4
20190821182705 20 33 0.0 4.8 0.00 0.00 0.00 54 1024.4
20190821182205 20 50 0.0 4.8 0.00 0.00 0.00 54 1024.4
20190821181707 21 63 1.6 4.8 0.00 0.00 0.00 53 1024.3
20190821181206 21 63 0.0 4.8 0.00 0.00 0.00 52 1024.4
20190821180706 21 62 0.0 4.8 0.00 0.00 0.00 52 1024.4
20190821180205 21 55 1.6 3.2 0.00 0.00 0.00 52 1024.5
20190821175707 21 49 1.6 3.2 0.00 0.00 0.00 51 1024.4
20190821175207 21 46 0.0 3.2 0.00 0.00 0.00 51 1024.4
20190821174706 21 27 0.0 1.6 0.00 0.00 0.00 52 1024.4
20190821174213 21 9 0.0 3.2 0.00 0.00 0.00 52 1024.4
20190821173707 21 315 1.6 3.2 0.00 0.00 0.00 52 1024.4
20190821173206 21 60 1.6 4.8 0.00 0.00 0.00 51 1024.4
20190821172708 21 58 1.6 4.8 0.00 0.00 0.00 51 1024.4
20190821172205 22 58 1.6 4.8 0.00 0.00 0.00 50 1024.4
20190821171708 22 82 1.6 9.7 0.00 0.00 0.00 50 1024.4
20190821171206 22 42 1.6 9.7 0.00 0.00 0.00 50 1024.4
20190821170705 22 60 1.6 9.7 0.00 0.00 0.00 49 1024.4
20190821170206 22 34 1.6 8.0 0.00 0.00 0.00 47 1024.5
20190821165706 22 213 0.0 8.0 0.00 0.00 0.00 49 1024.5
20190821165205 22 334 1.6 8.0 0.00 0.00 0.00 49 1024.5
20190821164708 22 23 1.6 8.0 0.00 0.00 0.00 49 1024.5
20190821164213 22 34 1.6 6.4 0.00 0.00 0.00 48 1024.6
20190821163705 23 20 0.0 3.2 0.00 0.00 0.00 47 1024.6
20190821163206 23 41 0.0 3.2 0.00 0.00 0.00 50 1024.6
20190821162706 23 48 0.0 3.2 0.00 0.00 0.00 47 1024.7
20190821162206 23 347 0.0 4.8 0.00 0.00 0.00 50 1024.7
20190821161705 23 18 0.0 4.8 0.00 0.00 0.00 49 1024.8
20190821161207 22 349 1.6 6.4 0.00 0.00 0.00 49 1024.8
20190821160706 22 59 1.6 6.4 0.00 0.00 0.00 48 1024.8
20190821160206 22 59 1.6 6.4 0.00 0.00 0.00 49 1024.8
20190821155705 23 57 0.0 4.8 0.00 0.00 0.00 49 1024.8
20190821155205 23 50 0.0 3.2 0.00 0.00 0.00 49 1024.8
20190821154710 23 80 0.0 3.2 0.00 0.00 0.00 50 1024.8
20190821154210 23 323 0.0 3.2 0.00 0.00 0.00 50 1024.8
20190821153706 23 34 0.0 3.2 0.00 0.00 0.00 50 1024.8
20190821153206 23 297 0.0 4.8 0.00 0.00 0.00 50 1024.8
20190821152706 23 323 0.0 4.8 0.00 0.00 0.00 48 1024.8
20190821152205 23 333 1.6 3.2 0.00 0.00 0.00 49 1024.9
20190821151705 23 56 0.0 4.8 0.00 0.00 0.00 48 1024.9
20190821151205 23 342 1.6 6.4 0.00 0.00 0.00 49 1024.8
20190821150706 23 355 1.6 6.4 0.00 0.00 0.00 49 1024.8
20190821150205 23 100 1.6 8.0 0.00 0.00 0.00 48 1024.9
20190821145705 23 67 1.6 9.7 0.00 0.00 0.00 51 1025.0
20190821145205 23 327 3.2 9.7 0.00 0.00 0.00 51 1025.0
20190821144705 23 341 3.2 9.7 0.00 0.00 0.00 49 1025.0
20190821144205 23 326 1.6 4.8 0.00 0.00 0.00 49 1025.1
20190821143705 23 333 1.6 8.0 0.00 0.00 0.00 51 1025.1
20190821143206 22 56 1.6 8.0 0.00 0.00 0.00 48 1025.1
20190821142706 22 330 3.2 6.4 0.00 0.00 0.00 50 1025.1
20190821142206 23 333 1.6 6.4 0.00 0.00 0.00 49 1025.1
20190821141709 23 286 1.6 4.8 0.00 0.00 0.00 51 1025.1
20190821141206 23 315 1.6 4.8 0.00 0.00 0.00 49 1025.2
20190821140705 22 306 0.0 4.8 0.00 0.00 0.00 52 1025.2
20190821140206 22 320 0.0 6.4 0.00 0.00 0.00 51 1025.2
20190821135714 22 3 0.0 6.4 0.00 0.00 0.00 54 1025.3
20190821135206 22 345 1.6 8.0 0.00 0.00 0.00 51 1025.3
20190821134706 22 338 1.6 9.7 0.00 0.00 0.00 50 1025.4
20190821134205 22 56 1.6 9.7 0.00 0.00 0.00 50 1025.3
20190821133705 22 47 3.2 9.7 0.00 0.00 0.00 50 1025.4
20190821133206 23 41 1.6 8.0 0.00 0.00 0.00 48 1025.4
20190821132707 23 323 1.6 8.0 0.00 0.00 0.00 50 1025.4
20190821132209 23 60 1.6 8.0 0.00 0.00 0.00 51 1025.5
20190821131709 23 70 1.6 6.4 0.00 0.00 0.00 49 1025.5
20190821131205 22 76 1.6 6.4 0.00 0.00 0.00 52 1025.6
20190821130705 22 72 1.6 8.0 0.00 0.00 0.00 51 1025.6
20190821130206 22 345 1.6 8.0 0.00 0.00 0.00 52 1025.6
20190821125705 22 307 1.6 8.0 0.00 0.00 0.00 51 1025.6
20190821125206 22 275 3.2 8.0 0.00 0.00 0.00 54 1025.7
20190821124705 22 248 3.2 8.0 0.00 0.00 0.00 50 1025.7
20190821124211 22 343 1.6 3.2 0.00 0.00 0.00 51 1025.7
20190821123708 22 44 0.0 3.2 0.00 0.00 0.00 53 1025.8
20190821123206 21 33 0.0 9.7 0.00 0.00 0.00 56 1025.7
20190821122705 21 302 1.6 9.7 0.00 0.00 0.00 55 1025.8
20190821122205 21 341 3.2 9.7 0.00 0.00 0.00 54 1025.8
20190821121705 21 278 3.2 6.4 0.00 0.00 0.00 53 1025.8
20190821121206 21 306 1.6 6.4 0.00 0.00 0.00 53 1026.0
20190821120713 21 62 1.6 8.0 0.00 0.00 0.00 54 1026.0
20190821120205 21 342 3.2 9.7 0.00 0.00 0.00 55 1025.9
20190821115705 21 307 4.8 9.7 0.00 0.00 0.00 55 1026.0
20190821115208 21 326 4.8 9.7 0.00 0.00 0.00 56 1026.1
20190821114706 21 307 3.2 8.0 0.00 0.00 0.00 54 1026.1
20190821114206 21 320 3.2 6.4 0.00 0.00 0.00 55 1026.1
20190821113705 21 321 1.6 9.7 0.00 0.00 0.00 54 1026.2
20190821113207 21 310 1.6 11.3 0.00 0.00 0.00 59 1026.2
20190821112706 20 323 3.2 11.3 0.00 0.00 0.00 55 1026.3
20190821112207 21 271 3.2 11.3 0.00 0.00 0.00 53 1026.2
20190821111706 21 68 3.2 6.4 0.00 0.00 0.00 54 1026.4
20190821111208 21 300 1.6 6.4 0.00 0.00 0.00 57 1026.4
20190821110707 21 297 1.6 6.4 0.00 0.00 0.00 56 1026.5
20190821110212 21 72 1.6 6.4 0.00 0.00 0.00 60 1026.5
20190821105705 20 359 1.6 6.4 0.00 0.00 0.00 55 1026.5
20190821105205 20 326 1.6 6.4 0.00 0.00 0.00 57 1026.6
20190821104706 20 323 1.6 6.4 0.00 0.00 0.00 57 1026.7
20190821104214 20 323 1.6 3.2 0.00 0.00 0.00 58 1026.7
20190821103705 20 328 1.6 8.0 0.00 0.00 0.00 56 1026.8
20190821103205 20 65 1.6 11.3 0.00 0.00 0.00 58 1026.8
20190821101705 20 141 3.2 6.4 0.00 0.00 0.00 59 1026.8
20190821101205 20 307 3.2 8.0 0.00 0.00 0.00 56 1026.8
20190821100710 20 93 3.2 12.9 0.00 0.00 0.00 58 1026.8
20190821100206 20 52 3.2 12.9 0.00 0.00 0.00 58 1026.9
20190821095706 20 83 3.2 8.0 0.00 0.00 0.00 58 1026.9
20190821095206 20 112 1.6 4.8 0.00 0.00 0.00 58 1026.9
20190821094706 20 90 1.6 9.7 0.00 0.00 0.00 59 1026.9
20190821094206 20 171 3.2 9.7 0.00 0.00 0.00 60 1026.9
20190821093705 19 115 1.6 9.7 0.00 0.00 0.00 59 1027.0
20190821093205 19 84 1.6 6.4 0.00 0.00 0.00 60 1027.0
20190821092705 19 117 3.2 6.4 0.00 0.00 0.00 60 1027.0
20190821092209 19 138 3.2 6.4 0.00 0.00 0.00 58 1027.0
20190821091708 19 133 3.2 6.4 0.00 0.00 0.00 59 1027.1
20190821091206 18 137 1.6 6.4 0.00 0.00 0.00 60 1027.0
20190821090707 19 134 1.6 4.8 0.00 0.00 0.00 62 1027.0
20190821090206 18 141 1.6 4.8 0.00 0.00 0.00 63 1027.1
20190821085708 18 131 1.6 4.8 0.00 0.00 0.00 64 1027.1
20190821085205 18 133 1.6 6.4 0.00 0.00 0.00 64 1027.1
20190821084707 18 132 1.6 6.4 0.00 0.00 0.00 65 1027.2
20190821084205 18 139 1.6 4.8 0.00 0.00 0.00 66 1027.1
20190821083706 18 137 1.6 6.4 0.00 0.00 0.00 66 1027.1
20190821083207 18 138 1.6 6.4 0.00 0.00 0.00 66 1027.1
20190821082706 18 136 1.6 6.4 0.00 0.00 0.00 67 1027.2
20190821082209 18 134 0.0 4.8 0.00 0.00 0.00 67 1027.2
20190821081705 18 134 0.0 4.8 0.00 0.00 0.00 67 1027.2
20190821081206 17 132 1.6 4.8 0.00 0.00 0.00 68 1027.2
20190821080706 17 134 1.6 4.8 0.00 0.00 0.00 68 1027.2
20190821080206 17 143 1.6 4.8 0.00 0.00 0.00 69 1027.2
20190821075705 17 131 1.6 4.8 0.00 0.00 0.00 69 1027.2
20190821075206 17 144 1.6 4.8 0.00 0.00 0.00 71 1027.2
20190821074706 17 138 1.6 4.8 0.00 0.00 0.00 71 1027.2
20190821074206 17 140 1.6 4.8 0.00 0.00 0.00 72 1027.2
20190821073706 17 139 1.6 4.8 0.00 0.00 0.00 72 1027.1
20190821073205 17 136 1.6 4.8 0.00 0.00 0.00 71 1027.1
20190821072706 17 148 0.0 3.2 0.00 0.00 0.00 69 1027.1
20190821072205 17 148 0.0 3.2 0.00 0.00 0.00 69 1027.0
20190821071705 17 148 0.0 1.6 0.00 0.00 0.00 70 1027.0
20190821071205 17 148 0.0 1.6 0.00 0.00 0.00 69 1027.0
20190821070705 18 174 0.0 0.0 0.00 0.00 0.00 69 1027.0
20190821070205 17 174 0.0 0.0 0.00 0.00 0.00 72 1027.0
20190821065705 17 174 0.0 0.0 0.00 0.00 0.00 75 1027.0
20190821065206 17 174 0.0 0.0 0.00 0.00 0.00 78 1027.0
20190821064707 16 174 0.0 0.0 0.00 0.00 0.00 81 1027.0
20190821064206 16 174 0.0 0.0 0.00 0.00 0.00 84 1027.0
20190821063706 15 174 0.0 0.0 0.00 0.00 0.00 83 1027.0
20190821063205 15 174 0.0 0.0 0.00 0.00 0.00 86 1027.0
20190821062706 15 174 0.0 0.0 0.00 0.00 0.00 89 1027.0
20190821062206 14 174 0.0 0.0 0.00 0.00 0.00 91 1026.9
20190821061705 13 174 0.0 1.6 0.00 0.00 0.00 92 1026.9
20190821061205 12 174 0.0 1.6 0.00 0.00 0.00 91 1027.0
20190821060707 12 174 0.0 1.6 0.00 0.00 0.00 91 1027.0
20190821060206 12 174 0.0 0.0 0.00 0.00 0.00 90 1026.9
20190821055706 12 174 0.0 0.0 0.00 0.00 0.00 90 1026.8
20190821055206 11 174 0.0 0.0 0.00 0.00 0.00 91 1026.8
20190821054705 11 174 0.0 0.0 0.00 0.00 0.00 91 1026.7
20190821054206 11 174 0.0 0.0 0.00 0.00 0.00 91 1026.7
20190821053705 11 174 0.0 0.0 0.00 0.00 0.00 91 1026.6
20190821053206 11 174 0.0 0.0 0.00 0.00 0.00 92 1026.6
20190821052706 11 174 0.0 0.0 0.00 0.00 0.00 92 1026.6
20190821052205 11 174 0.0 0.0 0.00 0.00 0.00 92 1026.6
20190821051705 11 174 0.0 0.0 0.00 0.00 0.00 92 1026.7
20190821051206 11 174 0.0 0.0 0.00 0.00 0.00 92 1026.6
20190821050706 11 174 0.0 1.6 0.00 0.00 0.00 92 1026.6
20190821050206 11 174 0.0 1.6 0.00 0.00 0.00 92 1026.6
20190821045706 11 174 0.0 1.6 0.00 0.00 0.00 92 1026.6
20190821045206 11 164 0.0 1.6 0.00 0.00 0.00 92 1026.5
20190821044705 11 164 0.0 1.6 0.00 0.00 0.00 92 1026.4
20190821044206 11 222 0.0 1.6 0.00 0.00 0.00 92 1026.4
20190821043705 11 222 0.0 1.6 0.00 0.00 0.00 92 1026.4
20190821043205 11 222 0.0 1.6 0.00 0.00 0.00 92 1026.4
20190821042705 11 222 0.0 1.6 0.00 0.00 0.00 92 1026.3
20190821042206 11 222 0.0 1.6 0.00 0.00 0.00 92 1026.3
20190821041706 11 222 0.0 1.6 0.00 0.00 0.00 92 1026.3
20190821041206 11 222 0.0 1.6 0.00 0.00 0.00 92 1026.2
20190821040705 11 222 0.0 1.6 0.00 0.00 0.00 92 1026.1
20190821040206 11 222 0.0 1.6 0.00 0.00 0.00 92 1026.1
20190821035705 11 229 0.0 1.6 0.00 0.00 0.00 93 1026.1
20190821035206 11 229 0.0 1.6 0.00 0.00 0.00 93 1026.0
20190821034706 11 229 0.0 1.6 0.00 0.00 0.00 93 1026.0
20190821034206 11 229 0.0 1.6 0.00 0.00 0.00 93 1025.8
20190821033705 11 229 0.0 1.6 0.00 0.00 0.00 92 1025.8
20190821033206 11 229 0.0 0.0 0.00 0.00 0.00 93 1025.8
20190821032705 11 233 0.0 0.0 0.00 0.00 0.00 93 1025.9
20190821032206 11 233 0.0 0.0 0.00 0.00 0.00 92 1025.8
20190821031705 11 233 0.0 0.0 0.00 0.00 0.00 92 1025.8
20190821031205 11 233 0.0 0.0 0.00 0.00 0.00 92 1025.8
20190821030704 11 233 0.0 0.0 0.00 0.00 0.00 92 1025.7
20190821030206 11 233 0.0 0.0 0.00 0.00 0.00 92 1025.7
20190821025705 11 233 0.0 0.0 0.00 0.00 0.00 93 1025.7
20190821025206 11 233 0.0 0.0 0.00 0.00 0.00 93 1025.7
20190821024705 11 233 0.0 0.0 0.00 0.00 0.00 92 1025.7
20190821024205 11 233 0.0 0.0 0.00 0.00 0.00 91 1025.8
20190821023705 11 233 0.0 0.0 0.00 0.00 0.00 91 1025.8
20190821023205 11 233 0.0 0.0 0.00 0.00 0.00 91 1025.7
20190821022706 11 233 0.0 0.0 0.00 0.00 0.00 92 1025.7
20190821022205 11 233 0.0 0.0 0.00 0.00 0.00 91 1025.7
20190821021705 11 233 0.0 0.0 0.00 0.00 0.00 90 1025.7
20190821021205 11 233 0.0 0.0 0.00 0.00 0.00 90 1025.7
20190821020706 11 233 0.0 0.0 0.00 0.00 0.00 90 1025.7
20190821020206 11 233 0.0 0.0 0.00 0.00 0.00 91 1025.7
20190821015705 11 233 0.0 0.0 0.00 0.00 0.00 90 1025.7
20190821015205 12 233 0.0 0.0 0.00 0.00 0.00 90 1025.7
20190821014705 12 233 0.0 0.0 0.00 0.00 0.00 91 1025.7
20190821014205 12 233 0.0 0.0 0.00 0.00 0.00 91 1025.7
20190821013706 12 233 0.0 0.0 0.00 0.00 0.00 90 1025.6
20190821013205 12 233 0.0 0.0 0.00 0.00 0.00 90 1025.6
20190821012706 12 233 0.0 0.0 0.00 0.00 0.00 90 1025.7
20190821012205 11 233 0.0 0.0 0.00 0.00 0.00 89 1025.6
20190821011705 11 233 0.0 0.0 0.00 0.00 0.00 89 1025.6
20190821011206 12 233 0.0 1.6 0.00 0.00 0.00 88 1025.5
20190821010706 12 233 0.0 1.6 0.00 0.00 0.00 88 1025.5
20190821010205 12 233 0.0 1.6 0.00 0.00 0.00 89 1025.5
20190821005705 12 233 0.0 0.0 0.00 0.00 0.00 88 1025.5
20190821005206 12 233 0.0 1.6 0.00 0.00 0.00 87 1025.5
20190821004706 12 233 0.0 1.6 0.00 0.00 0.00 87 1025.5
20190821004206 12 233 0.0 1.6 0.00 0.00 0.00 87 1025.6
20190821003705 13 233 0.0 1.6 0.00 0.00 0.00 86 1025.6
20190821003206 13 233 0.0 1.6 0.00 0.00 0.00 86 1025.5
20190821002706 13 234 0.0 3.2 0.00 0.00 0.00 86 1025.5
20190821002206 13 234 0.0 3.2 0.00 0.00 0.00 86 1025.5
20190821001706 13 234 0.0 1.6 0.00 0.00 0.00 86 1025.5
20190821001206 13 226 0.0 1.6 0.00 0.00 0.00 86 1025.5
20190821000705 13 245 0.0 1.6 0.00 0.00 0.00 86 1025.5
20190821000205 13 235 0.0 1.6 0.00 0.00 0.00 86 1025.5
20190820235705 13 235 0.0 1.6 0.00 0.00 0.00 85 1025.4
20190820235206 13 235 0.0 1.6 0.00 0.00 0.00 84 1025.3
20190820234705 13 235 0.0 1.6 0.00 0.00 0.00 85 1025.4
20190820234206 13 235 0.0 1.6 0.00 0.00 0.00 84 1025.4
20190820233705 13 235 0.0 1.6 0.00 0.00 0.00 84 1025.4
20190820233207 13 235 0.0 1.6 0.00 0.00 0.00 84 1025.3
20190820232706 13 235 0.0 1.6 0.00 0.00 0.00 83 1025.3
20190820232206 14 235 0.0 3.2 0.00 0.00 0.00 83 1025.3
20190820231707 14 235 0.0 3.2 0.00 0.00 0.00 84 1025.3
20190820231206 14 241 0.0 3.2 0.00 0.00 0.00 83 1025.3
20190820230707 14 250 0.0 3.2 0.00 0.00 0.00 83 1025.3
20190820230206 14 250 0.0 3.2 0.00 0.00 0.00 83 1025.2
20190820225707 14 260 0.0 0.0 0.00 0.00 0.00 83 1025.2
20190820225208 14 144 0.0 0.0 0.00 0.00 0.00 81 1025.2
20190820224712 14 144 0.0 0.0 0.00 0.00 0.00 81 1025.2
20190820224205 15 144 0.0 1.6 0.00 0.00 0.00 80 1025.1
20190820223709 15 144 0.0 1.6 0.00 0.00 0.00 81 1025.1
20190820223209 15 144 0.0 1.6 0.00 0.00 0.00 81 1025.1
20190820222706 15 257 0.0 1.6 0.00 0.00 0.00 82 1025.2
20190820222206 15 1 0.0 0.0 0.00 0.00 0.00 82 1025.2
20190820221705 14 1 0.0 0.0 0.00 0.00 0.00 82 1025.1
20190820221205 14 1 0.0 0.0 0.00 0.00 0.00 82 1025.0
20190820220705 14 1 0.0 0.0 0.00 0.00 0.00 83 1025.0
20190820220205 14 1 0.0 0.0 0.00 0.00 0.00 84 1025.0
20190820215705 14 1 0.0 0.0 0.00 0.00 0.00 84 1024.9
20190820215207 13 1 0.0 0.0 0.00 0.00 0.00 84 1024.9
20190820214705 13 1 0.0 0.0 0.00 0.00 0.00 82 1024.8
20190820214206 13 1 0.0 1.6 0.00 0.00 0.00 82 1024.8
20190820213705 13 1 0.0 1.6 0.00 0.00 0.00 81 1024.7
20190820213205 14 1 0.0 1.6 0.00 0.00 0.00 81 1024.7
20190820212706 14 1 0.0 1.6 0.00 0.00 0.00 80 1024.7
20190820212206 15 330 0.0 1.6 0.00 0.00 0.00 79 1024.6
20190820211707 15 320 0.0 0.0 0.00 0.00 0.00 78 1024.6
20190820211207 15 321 0.0 0.0 0.00 0.00 0.00 78 1024.6
20190820210705 15 320 0.0 0.0 0.00 0.00 0.00 78 1024.5
20190820210206 15 320 0.0 0.0 0.00 0.00 0.00 78 1024.5
20190820205706 15 320 0.0 0.0 0.00 0.00 0.00 76 1024.4
20190820205206 15 320 0.0 0.0 0.00 0.00 0.00 76 1024.3
20190820204706 15 320 0.0 0.0 0.00 0.00 0.00 74 1024.3
20190820204206 15 320 0.0 0.0 0.00 0.00 0.00 73 1024.2
20190820203706 15 320 0.0 0.0 0.00 0.00 0.00 74 1024.2
20190820203205 15 321 0.0 0.0 0.00 0.00 0.00 74 1024.2
20190820202706 15 320 0.0 0.0 0.00 0.00 0.00 74 1024.1
20190820202206 15 320 0.0 0.0 0.00 0.00 0.00 74 1024.0
20190820201705 15 321 0.0 0.0 0.00 0.00 0.00 75 1024.0
20190820201205 15 320 0.0 0.0 0.00 0.00 0.00 74 1023.9
20190820200712 15 320 0.0 0.0 0.00 0.00 0.00 73 1023.9
20190820200206 15 320 0.0 0.0 0.00 0.00 0.00 73 1023.9
20190820195706 15 320 0.0 0.0 0.00 0.00 0.00 72 1023.8
20190820195205 16 320 0.0 0.0 0.00 0.00 0.00 70 1023.7